TimeCST,TemperatureF,Dew PointF,Humidity,Sea Level PressureIn,VisibilityMPH,Wind Direction,Wind SpeedMPH,Gust SpeedMPH,PrecipitationIn,Events,Conditions,WindDirDegrees,DateUTC
12:53 AM,37.9,37.0,97,29.36,5.0,East,6.9,-,0.04,Rain,Light Rain,90,2013-02-10 06:53:00
1:33 AM,35.6,33.8,93,29.33,5.0,West,17.3,-,0.06,Rain,Light Rain,260,2013-02-10 07:33:00
1:42 AM,33.8,30.2,87,29.32,2.5,West,13.8,-,0.07,Snow,Light Snow,280,2013-02-10 07:42:00
1:53 AM,33.1,30.9,92,29.33,2.0,West,16.1,-,0.07,Snow,Light Snow,280,2013-02-10 07:53:00
2:10 AM,33.8,30.2,87,29.31,2.5,West,16.1,-,0.01,Snow,Light Snow,280,2013-02-10 08:10:00
2:19 AM,32.0,30.2,93,29.31,5.0,West,18.4,24.2,0.01,Snow,Light Snow,280,2013-02-10 08:19:00
2:40 AM,32.0,28.4,87,29.30,3.0,WNW,20.7,29.9,0.01,Snow,Light Snow,290,2013-02-10 08:40:00
2:48 AM,32.0,28.4,87,29.30,4.0,West,20.7,26.5,0.01,Snow,Light Snow,280,2013-02-10 08:48:00
2:53 AM,30.9,28.0,89,29.31,5.0,West,21.9,31.1,0.01,Snow,Light Snow,280,2013-02-10 08:53:00
3:23 AM,30.2,26.6,86,29.30,10.0,WNW,21.9,29.9,0.00,,Overcast,290,2013-02-10 09:23:00
3:53 AM,30.0,25.0,82,29.30,10.0,WNW,25.3,34.5,0.00,,Overcast,300,2013-02-10 09:53:00
4:00 AM,28.4,24.8,86,29.28,10.0,WNW,25.3,32.2,N/A,,Overcast,300,2013-02-10 10:00:00
4:13 AM,28.4,24.8,86,29.28,10.0,WNW,23.0,33.4,N/A,,Overcast,290,2013-02-10 10:13:00
4:53 AM,28.0,24.1,85,29.30,10.0,WNW,27.6,36.8,N/A,,Mostly Cloudy,300,2013-02-10 10:53:00
5:53 AM,27.0,23.0,85,29.34,10.0,WNW,34.5,42.6,N/A,,Partly Cloudy,300,2013-02-10 11:53:00
6:21 AM,26.6,23.0,86,29.33,8.0,NW,32.2,43.7,0.00,Snow,Light Snow,310,2013-02-10 12:21:00
6:51 AM,26.6,21.2,80,29.36,10.0,NW,33.4,43.7,0.00,,Overcast,310,2013-02-10 12:51:00
6:53 AM,26.6,21.2,80,29.36,10.0,NW,35.7,46.0,N/A,,Overcast,310,2013-02-10 12:53:00
7:39 AM,28.4,21.2,74,29.42,10.0,NW,27.6,39.1,N/A,,Overcast,310,2013-02-10 13:39:00
7:53 AM,28.0,21.9,78,29.47,10.0,NW,29.9,40.3,N/A,,Overcast,310,2013-02-10 13:53:00
8:50 AM,28.4,21.2,74,29.47,10.0,NW,33.4,44.9,N/A,,Overcast,310,2013-02-10 14:50:00
8:53 AM,28.9,21.9,75,29.52,10.0,NW,34.5,44.9,N/A,,Overcast,310,2013-02-10 14:53:00
9:53 AM,30.0,25.0,82,29.57,7.0,NW,29.9,36.8,N/A,,Overcast,310,2013-02-10 15:53:00
10:02 AM,30.2,24.8,80,29.53,4.0,NW,33.4,39.1,0.00,,Overcast,310,2013-02-10 16:02:00
10:25 AM,30.2,26.6,86,29.54,2.5,NW,31.1,39.1,0.00,,Haze,310,2013-02-10 16:25:00
10:39 AM,30.2,26.6,86,29.55,1.8,NW,32.2,39.1,0.00,Snow,Light Snow,310,2013-02-10 16:39:00
10:53 AM,30.9,27.0,85,29.60,1.0,NW,31.1,42.6,0.00,Snow,Light Snow,310,2013-02-10 16:53:00
11:53 AM,32.0,27.0,82,29.63,1.2,NW,32.2,46.0,0.00,,Overcast,310,2013-02-10 17:53:00
12:12 PM,33.8,28.4,81,29.59,3.0,NW,36.8,47.2,0.00,,Overcast,310,2013-02-10 18:12:00
12:36 PM,33.8,28.4,81,29.60,4.0,NW,33.4,50.6,0.00,,Overcast,310,2013-02-10 18:36:00
12:53 PM,35.1,28.0,76,29.64,9.0,NW,36.8,47.2,0.00,,Overcast,320,2013-02-10 18:53:00
1:53 PM,35.1,28.0,76,29.71,5.0,NW,29.9,42.6,0.00,Snow,Light Snow,310,2013-02-10 19:53:00
2:53 PM,39.0,27.0,62,29.74,10.0,NW,32.2,43.7,0.00,,Overcast,310,2013-02-10 20:53:00
3:53 PM,37.0,24.1,59,29.80,10.0,NW,34.5,46.0,N/A,,Overcast,320,2013-02-10 21:53:00
4:53 PM,37.0,23.0,57,29.85,10.0,NW,28.8,33.4,N/A,,Scattered Clouds,320,2013-02-10 22:53:00
5:53 PM,34.0,23.0,64,29.91,10.0,NW,24.2,32.2,N/A,,Mostly Cloudy,320,2013-02-10 23:53:00
6:53 PM,30.9,21.0,67,29.97,10.0,NW,19.6,27.6,N/A,,Clear,320,2013-02-11 00:53:00
7:53 PM,30.0,19.9,66,29.99,10.0,NW,19.6,25.3,N/A,,Clear,320,2013-02-11 01:53:00
8:53 PM,28.9,19.9,69,30.03,10.0,West,8.1,-,N/A,,Clear,280,2013-02-11 02:53:00
9:53 PM,27.0,19.9,75,30.05,10.0,West,9.2,-,N/A,,Clear,280,2013-02-11 03:53:00
10:53 PM,28.0,21.0,75,30.07,10.0,WNW,10.4,18.4,N/A,,Clear,290,2013-02-11 04:53:00
11:53 PM,25.0,19.0,78,30.12,10.0,West,6.9,-,N/A,,Partly Cloudy,260,2013-02-11 05:53:00